Location: Vienna
(48.2082°N, 16.3738°E)
Time: 22:24:46
(UTC+02:00)

ISS - Pass Details

Date: 19 July 2018
Orbit: 402 x 408 km, 51.6° (Epoch: 20 July)

Event Time Altitude Azimuth Distance (km) Brightness Sun altitude
Exits shadow 01:30:34 - 277° (W) 2,126 -0.2 -20.6°
Reaches altitude 10° 01:32:13 10° 283° (WNW) 1,467 -1.0 -20.5°
Maximum altitude 01:35:23 44° 357° (N) 579 -2.6 -20.5°
Drops below altitude 10° 01:38:34 10° 71° (ENE) 1,471 -0.7 -20.4°
Sets 01:40:43 0° 79° (ENE) 2,333 0.3 -20.3°
